Tracking 17925 objects as of 24-January-2017
HD Live streaming from Space Station
objects crossing your sky now

SL-12 R/B(AUX MOTOR)

Track SL-12 R/B(AUX MOTOR) now!


NORAD ID: 25053
Int'l Code: 1997-070E
Perigee: -6,371.0 km
Apogee: -6,371.0 km
Inclination: 45.5 °
Period: 0.0 minutes
Semi major axis: 0 km
RCS: 0.8237 m2 (medium)
Launch date: November 12, 1997
Source: Commonwealth of Independent States (former USSR) (CIS)
Launch site: TYURATAM MISSILE AND SPACE COMPLEX (TTMTR)

Note: This is a ROCKET BODY
Your satellite tracking list
Your tracking list is empty





NASA's NSSDC Master Catalog

Two Line Element Set (TLE):
1 25053U 97070E   17022.69097255 -.00000046 +00000-0 -47045-2 0  9997
2 25053 045.5062 176.4977 6843023 122.6944 321.4737 02.41729992168898
Source of the keplerian elements: AFSPC